Location: Bijele Vode
(45.2833°N, 16.2000°E)
Time: 11:34:17
(UTC+00:00)

CENTAUR R/B - Pass Details

Date: 19 January 2021
Orbit: 742 x 1446 km, 63.5° (Epoch: 02 March)

Event Time Altitude Azimuth Distance (km) Brightness Sun altitude
Rises 04:26:29 0° 148° (SSE) 3,359 5.9 -21.1°
Maximum altitude 04:32:21 10° 100° (E) 2,631 6.0 -20.0°
Drops below altitude 10° 04:32:22 10° 100° (E) 2,631 6.0 -20.0°
Sets 04:38:50 0° 54° (NE) 3,837 6.3 -18.9°
